Wind_Speed
18 19 18 16 25 15 5 7 2 6 4 5 4 5 6 7 10 11 11 13 15 15 17 17 15 17 17 17 18 18 19 21 22 22 20 19 19 18 17 15 14 13 13 14 16 16 16 18 21
12 10 15 19 29 4 4 5 4 2 3 5 5 5 6 6 7 10 12 13 13 18 14 17 19 19 19 21 22 22 23 23 23 23 22 22 20 18 16 15 14 14 15 16 17 18 19 19 20
15 17 16 29 8 5 6 8 2 2 4 5 5 5 4 4 6 8 9 12 16 20 19 27 23 22 23 23 23 24 25 25 24 24 24 23 22 22 20 20 19 18 17 18 19 20 21 22 22
13 11 20 31 7 6 4 7 7 6 8 5 8 11 5 3 8 9 11 15 9 14 21 29 24 23 24 24 25 25 26 27 28 27 26 26 25 24 23 23 23 23 22 21 21 21 22 23 23
14 21 26 2 8 4 3 2 6 11 13 6 8 8 6 4 8 11 15 16 17 21 20 25 26 23 22 22 21 21 22 23 23 24 25 25 25 24 24 24 24 25 26 26 26 26 25 25 26
7 16 21 18 7 5 9 6 9 12 10 6 2 5 7 7 11 14 15 19 22 23 25 22 22 25 22 22 22 23 25 27 27 27 28 26 25 24 24 26 27 28 27 26 25 24 24 24 25
23 31 29 10 10 12 22 12 12 14 3 9 7 16 12 12 13 17 20 23 26 29 30 31 25 22 21 23 22 23 24 26 24 28 27 24 25 28 28 29 28 27 25 25 26 26 26 27 28
8 8 26 13 16 22 19 19 11 4 10 10 10 8 14 12 16 16 21 25 23 24 26 27 28 29 17 16 20 23 25 24 27 28 25 26 28 29 26 25 26 25 25 25 26 28 29 29 30
14 7 24 18 20 17 20 22 14 3 7 6 7 7 9 11 15 20 24 24 23 23 23 21 21 20 23 19 20 21 24 28 26 25 27 28 28 28 27 25 25 25 24 25 26 28 30 31 32
20 21 9 10 10 19 23 20 14 12 7 9 9 9 11 13 16 20 22 21 21 22 22 21 19 20 21 24 24 25 27 24 25 26 28 29 28 27 26 25 25 25 26 26 27 29 31 32 33
7 8 12 11 9 10 13 16 18 18 13 12 11 12 14 14 15 19 19 20 22 23 23 22 22 22 23 24 25 24 23 26 28 30 31 29 28 26 25 24 24 24 25 26 28 29 31 32 34
9 9 9 11 12 12 13 9 12 11 12 9 8 11 11 14 17 18 18 18 21 22 23 23 22 22 22 21 22 24 26 28 29 28 27 27 28 27 25 25 25 26 26 28 30 32 34 36 38
10 14 12 7 11 12 14 15 15 12 10 9 11 12 13 15 16 15 16 18 20 22 24 23 22 21 22 22 23 26 28 28 28 26 26 27 27 25 24 24 25 26 27 29 31 33 34 36 37
14 11 12 8 12 10 14 15 14 15 14 15 17 15 14 14 14 15 15 17 21 23 25 24 22 21 20 21 24 26 27 28 26 25 25 26 25 24 24 25 26 27 28 30 32 32 32 33 35
10 13 14 6 17 5 9 7 13 14 12 13 15 15 14 13 14 14 15 17 19 22 22 21 20 19 19 20 22 25 26 26 24 25 24 25 25 24 25 26 27 27 28 31 31 30 31 33 32
31 20 14 26 23 14 9 7 13 16 13 13 13 15 15 16 16 16 16 17 19 22 24 24 21 20 21 20 21 24 25 26 26 24 23 24 25 25 25 26 26 27 29 31 30 29 30 32 31
31 29 15 23 15 20 11 12 17 18 13 10 14 14 15 17 19 18 17 18 19 21 23 23 23 22 21 22 21 22 23 25 27 26 23 22 25 25 25 25 26 28 31 32 30 29 29 32 31
13 11 13 21 26 21 16 19 17 16 16 16 15 13 15 16 17 20 19 18 19 21 24 26 26 25 24 23 23 24 23 24 26 26 23 22 24 26 27 27 28 30 32 33 30 28 27 29 29
11 11 10 6 15 16 16 18 17 15 14 14 17 14 15 16 18 20 19 19 21 23 25 26 27 27 26 25 25 25 24 25 27 27 23 24 26 28 29 29 29 30 32 33 29 28 27 27 28
16 10 18 19 15 13 17 10 18 19 14 14 14 18 17 16 18 19 20 21 22 24 25 26 27 28 27 26 26 26 26 26 28 29 26 24 25 27 29 30 30 31 33 33 30 27 27 27 27
7 12 10 11 13 3 15 16 23 22 17 16 16 16 16 15 16 18 20 22 23 25 26 27 27 28 28 28 27 27 26 25 27 28 28 26 25 27 29 31 31 31 33 34 30 28 27 28 27
20 14 13 10 11 20 4 10 24 20 15 15 18 19 16 16 17 18 20 24 25 25 26 27 28 28 29 28 29 29 29 29 29 30 30 27 26 27 29 31 31 31 33 34 32 29 28 27 28
9 22 14 10 12 16 3 11 21 30 25 21 15 17 17 18 18 19 22 24 26 25 26 27 28 30 31 30 30 29 30 29 28 29 30 29 26 27 28 30 32 32 33 35 32 29 29 28 27
12 17 23 17 25 21 22 12 19 20 26 23 28 19 19 21 21 23 24 26 29 28 27 28 29 29 30 31 32 32 31 31 30 29 30 30 29 27 27 29 30 33 34 35 33 29 28 28 26
7 11 20 21 28 29 18 18 10 22 21 21 25 29 23 22 25 22 26 28 27 30 30 28 30 30 31 31 33 33 32 31 31 30 30 29 30 29 28 28 29 32 34 36 34 29 27 27 27
14 15 17 15 13 15 27 24 23 21 19 15 24 28 32 26 29 28 27 26 28 29 30 31 31 33 32 32 32 32 33 33 31 30 30 30 30 31 29 28 29 31 34 36 35 31 28 27 28
16 13 11 17 12 14 27 23 24 25 25 35 30 28 29 29 26 31 29 29 30 31 33 33 33 34 34 33 33 34 33 34 32 32 31 31 30 30 29 29 29 29 33 35 36 31 27 27 27
18 17 16 18 22 17 6 18 36 20 12 27 27 32 29 29 25 26 30 29 32 32 34 35 34 33 33 33 33 33 33 33 33 31 30 31 31 31 31 30 29 29 32 32 35 32 28 27 26
19 14 18 25 20 15 20 23 28 19 20 29 18 38 31 31 29 31 32 30 34 36 34 37 36 34 32 32 34 35 35 34 33 32 30 32 31 31 31 30 29 29 31 30 34 33 30 28 28
18 14 22 32 23 8 12 23 28 36 36 34 26 21 30 26 25 30 36 31 35 36 43 41 36 35 35 33 33 35 37 37 35 33 30 31 30 30 32 32 30 29 29 29 31 34 32 30 29
Wind_Direction
100 93 99 107 79 71 269 264 107 341 7 354 348 317 320 329 320 333 332 333 332 337 333 336 341 344 337 330 328 333 336 338 336 334 329 325 320 316 312 306 299 291 286 284 282 281 278 274 268
95 78 71 84 91 85 353 345 239 294 326 324 319 306 297 303 333 339 336 333 334 329 327 327 343 346 343 336 336 338 337 337 334 333 328 324 320 315 310 304 300 298 295 289 288 286 285 280 275
91 98 109 89 89 301 312 13 3 304 293 317 331 330 302 320 3 2 356 343 357 333 305 336 340 341 338 335 336 338 337 338 337 333 328 322 318 315 314 311 308 303 301 299 296 291 286 283 278
165 177 72 84 288 83 52 46 8 233 275 326 331 335 332 331 342 353 345 344 330 325 326 354 333 337 337 330 330 330 333 334 332 329 323 319 315 313 312 311 309 308 307 304 299 294 291 288 283
324 78 91 22 2 150 113 32 264 262 283 307 315 354 55 4 337 336 337 339 337 332 337 337 336 332 329 330 332 332 330 327 323 323 322 318 315 312 313 309 308 308 306 304 300 296 293 289 285
87 53 106 94 4 333 353 304 283 278 303 71 44 17 12 354 330 340 341 342 339 338 336 334 332 327 330 331 332 330 332 330 327 325 326 322 321 320 318 313 312 309 308 307 304 301 299 294 290
328 325 91 315 356 84 332 325 254 275 7 254 327 35 339 346 343 348 348 346 346 340 336 333 330 326 334 331 334 332 331 326 322 323 324 325 325 320 317 314 314 312 312 308 306 304 302 299 295
282 258 77 345 348 345 11 348 346 350 285 351 4 338 325 343 343 352 348 342 343 337 334 331 329 331 337 329 328 331 324 325 324 325 325 325 323 319 318 314 316 314 311 309 308 305 303 301 298
329 8 53 13 359 28 23 25 25 182 288 46 63 35 19 360 346 345 353 357 352 347 340 338 339 337 334 338 328 325 331 325 327 328 327 327 327 326 325 323 321 318 316 312 309 307 303 300 298
353 50 28 1 3 33 25 33 58 77 60 40 36 22 5 351 347 345 359 5 0 359 358 353 347 341 338 335 332 334 327 327 330 327 328 329 329 328 325 325 325 324 320 315 313 309 306 302 298
345 17 7 11 341 27 25 35 47 69 66 41 21 359 349 347 350 2 359 359 359 353 347 345 341 334 333 330 332 331 333 332 332 331 331 332 330 329 326 325 323 320 319 318 316 314 310 307 304
353 359 1 40 34 31 52 73 57 45 44 22 1 354 346 356 359 360 354 352 352 342 337 336 337 339 341 341 339 337 333 331 329 331 333 334 335 331 328 327 327 326 325 326 324 320 315 311 307
21 359 357 62 61 65 47 54 56 40 34 12 7 1 5 3 356 351 355 353 348 342 341 340 344 343 343 341 338 336 334 333 333 336 336 337 336 332 330 328 328 328 326 323 321 320 317 314 312
330 357 357 64 89 71 64 63 69 50 32 28 18 8 8 3 354 351 353 356 348 346 344 341 341 340 337 337 336 335 335 334 335 335 334 339 337 333 331 329 329 328 324 322 322 321 320 322 322
49 75 47 49 14 80 86 29 49 36 32 19 19 17 15 9 1 352 351 353 350 347 345 337 334 330 331 332 331 332 337 338 338 335 335 341 341 335 331 330 329 327 325 323 324 324 327 330 329
11 56 52 3 349 12 30 23 25 28 21 15 10 11 12 6 0 351 354 348 348 345 346 344 340 335 329 327 329 335 341 343 337 334 337 341 342 337 331 328 328 328 326 327 327 328 332 329 329
360 14 70 343 0 348 9 34 29 17 17 356 358 358 5 2 359 358 356 349 346 343 345 345 346 340 332 328 331 337 340 343 341 334 336 337 340 340 337 331 329 330 333 334 330 329 333 331 325
9 12 10 309 330 336 10 17 22 14 3 348 350 352 5 9 2 3 1 353 349 347 349 350 350 346 340 335 333 336 338 340 340 337 332 332 337 342 343 340 339 339 340 339 331 327 330 332 325
330 298 259 334 339 343 36 345 32 24 7 4 352 2 359 7 3 8 5 359 350 351 351 353 351 347 343 336 333 333 335 335 338 340 333 333 336 341 343 343 339 341 343 342 334 327 328 333 328
268 333 2 345 341 354 10 10 348 11 354 354 355 342 353 3 11 5 7 4 359 354 355 353 350 346 345 340 334 333 333 334 336 339 334 336 335 340 342 342 341 342 344 344 339 329 328 332 330
339 332 16 325 335 322 356 9 332 346 344 340 340 344 341 355 3 7 9 8 2 356 355 352 348 346 344 341 337 334 332 329 331 335 336 336 337 339 342 343 343 344 345 345 342 335 326 330 333
321 332 349 319 311 293 353 356 317 328 341 330 333 334 339 345 352 360 5 2 360 355 353 349 347 344 342 340 338 337 335 333 332 335 336 335 337 339 341 342 344 344 347 348 345 339 335 328 333
309 304 301 359 327 296 352 35 286 313 349 343 345 338 335 334 349 348 356 358 352 351 346 343 343 342 341 339 337 338 335 331 331 333 333 334 336 337 341 342 344 346 348 348 348 343 340 336 332
332 323 318 1 357 338 64 46 287 327 331 325 328 337 335 331 336 342 346 351 342 345 342 337 336 335 336 337 336 337 336 333 331 330 332 333 335 336 338 342 345 346 347 348 348 348 343 342 335
338 318 320 336 350 334 355 323 295 284 323 330 326 323 324 327 324 335 341 344 343 337 337 335 330 329 329 332 335 336 334 333 331 329 329 331 334 336 335 339 344 345 345 347 348 349 346 343 342
292 308 288 354 339 324 325 323 318 294 316 334 334 326 319 323 322 328 334 336 335 333 332 329 328 327 326 327 329 333 333 332 331 329 328 329 334 335 335 335 339 343 345 345 348 348 349 345 346
296 302 329 300 305 329 328 332 330 335 317 316 333 330 319 318 322 324 326 332 332 335 331 328 326 324 326 326 328 329 332 330 329 329 328 326 329 332 335 335 336 340 343 344 347 348 349 349 347
314 272 302 294 303 318 249 301 319 332 277 312 324 326 324 315 317 316 321 332 327 329 327 324 324 323 321 323 325 326 330 329 328 326 325 325 327 331 334 336 334 337 342 344 348 350 347 351 350
248 343 313 308 308 337 323 312 306 295 297 311 323 322 323 316 319 325 324 332 325 324 327 326 325 321 321 323 324 326 327 329 327 327 328 322 324 329 332 335 335 337 340 341 343 350 348 348 349
290 262 282 292 284 282 324 316 304 314 318 321 352 329 319 317 326 327 322 330 329 331 325 325 320 322 323 324 327 327 327 329 328 326 323 320 322 327 331 334 336 336 341 342 342 344 349 347 347
Height
5920 5920 5920 5918 5911 5921 5919 5915 5913 5912 5911 5910 5910 5910 5908 5907 5906 5907 5904 5903 5901 5898 5894 5893 5891 5890 5891 5890 5888 5885 5883 5882 5880 5879 5878 5876 5874 5872 5870 5868 5866 5865 5864 5863 5862 5862 5861 5859 5858
5922 5925 5921 5918 5912 5921 5918 5915 5913 5912 5911 5911 5910 5909 5908 5908 5907 5906 5905 5903 5900 5896 5895 5893 5892 5891 5889 5889 5887 5884 5882 5880 5878 5876 5874 5872 5871 5869 5867 5865 5863 5862 5861 5860 5859 5858 5857 5856 5855
5921 5920 5919 5914 5920 5920 5918 5915 5914 5913 5911 5909 5909 5909 5908 5908 5907 5907 5906 5902 5902 5898 5896 5888 5890 5889 5887 5887 5885 5882 5880 5878 5875 5874 5872 5870 5867 5865 5863 5862 5860 5859 5858 5856 5855 5853 5852 5851 5850
5916 5909 5906 5894 5917 5920 5918 5917 5915 5914 5911 5911 5910 5909 5908 5908 5906 5905 5903 5901 5902 5901 5893 5879 5891 5889 5886 5885 5883 5880 5878 5876 5873 5871 5869 5866 5864 5862 5860 5857 5855 5854 5853 5851 5850 5849 5848 5846 5845
5920 5912 5911 5922 5919 5919 5920 5917 5918 5913 5911 5912 5909 5909 5907 5907 5905 5904 5903 5901 5899 5894 5893 5889 5887 5886 5885 5883 5881 5878 5875 5872 5870 5866 5864 5861 5859 5856 5854 5852 5850 5849 5847 5846 5844 5843 5842 5841 5839
5923 5917 5918 5922 5920 5919 5920 5919 5916 5912 5910 5912 5906 5911 5909 5907 5907 5906 5903 5901 5897 5894 5890 5889 5887 5883 5882 5878 5877 5875 5872 5869 5867 5864 5861 5858 5855 5853 5851 5847 5846 5844 5841 5839 5838 5837 5836 5835 5834
5926 5905 5901 5928 5925 5911 5918 5918 5914 5913 5910 5909 5913 5906 5913 5909 5907 5904 5901 5898 5894 5891 5887 5883 5885 5882 5880 5875 5874 5872 5869 5866 5863 5861 5857 5854 5851 5848 5846 5842 5841 5838 5835 5834 5833 5831 5830 5828 5827
5930 5923 5901 5928 5924 5918 5919 5912 5912 5912 5906 5915 5911 5912 5911 5908 5907 5903 5901 5898 5895 5891 5887 5883 5879 5875 5880 5877 5873 5871 5867 5864 5861 5857 5854 5851 5848 5845 5843 5839 5835 5834 5831 5829 5826 5825 5824 5822 5820
5931 5930 5920 5927 5923 5923 5921 5916 5912 5911 5912 5917 5917 5915 5912 5909 5907 5903 5899 5897 5893 5889 5886 5883 5879 5877 5873 5873 5871 5870 5864 5861 5857 5854 5850 5847 5843 5840 5837 5833 5831 5828 5826 5823 5821 5819 5817 5815 5813
5935 5930 5932 5929 5927 5924 5920 5920 5916 5914 5913 5913 5914 5913 5910 5907 5904 5902 5899 5896 5893 5889 5886 5883 5880 5878 5875 5870 5868 5864 5862 5859 5854 5851 5847 5843 5838 5835 5832 5829 5825 5822 5820 5818 5815 5813 5811 5808 5806
5939 5938 5935 5933 5930 5928 5926 5922 5919 5918 5916 5914 5911 5909 5907 5905 5904 5901 5899 5896 5893 5890 5886 5883 5879 5876 5873 5870 5866 5862 5859 5855 5851 5847 5842 5837 5834 5831 5827 5824 5821 5819 5816 5813 5810 5806 5802 5799 5796
5942 5939 5937 5935 5932 5929 5927 5923 5922 5919 5917 5915 5914 5911 5909 5907 5904 5902 5899 5896 5893 5890 5887 5883 5879 5876 5872 5869 5865 5861 5857 5852 5849 5844 5840 5836 5831 5827 5823 5820 5817 5814 5810 5807 5803 5799 5795 5791 5787
5942 5941 5939 5935 5932 5931 5927 5925 5924 5923 5921 5918 5916 5913 5910 5907 5905 5904 5900 5897 5893 5890 5886 5882 5878 5874 5871 5868 5865 5861 5856 5852 5847 5843 5838 5833 5829 5825 5821 5817 5813 5809 5805 5802 5797 5793 5788 5783 5778
5941 5941 5941 5936 5932 5931 5930 5928 5926 5924 5924 5921 5918 5915 5912 5910 5907 5905 5901 5896 5893 5889 5885 5881 5878 5875 5871 5868 5864 5860 5855 5850 5846 5841 5836 5832 5827 5822 5818 5813 5809 5805 5800 5796 5791 5787 5781 5776 5770
5940 5938 5939 5939 5934 5933 5932 5932 5925 5924 5924 5923 5920 5916 5913 5911 5908 5904 5900 5896 5893 5889 5886 5883 5878 5874 5871 5867 5864 5859 5855 5849 5844 5840 5834 5830 5824 5820 5815 5811 5806 5801 5797 5792 5786 5780 5775 5769 5763
5942 5937 5932 5936 5933 5935 5932 5933 5929 5924 5923 5921 5920 5917 5913 5911 5907 5904 5900 5896 5893 5890 5886 5882 5878 5874 5870 5866 5862 5857 5852 5847 5843 5838 5833 5828 5823 5818 5813 5808 5804 5799 5793 5787 5780 5774 5769 5763 5758
5944 5939 5932 5935 5938 5934 5935 5931 5927 5925 5923 5923 5920 5917 5914 5911 5907 5903 5899 5896 5894 5890 5886 5882 5876 5872 5868 5864 5860 5855 5851 5846 5841 5836 5831 5826 5821 5816 5810 5805 5800 5794 5788 5781 5775 5769 5764 5758 5753
5956 5950 5946 5945 5940 5937 5932 5930 5928 5926 5923 5920 5919 5916 5913 5910 5907 5902 5898 5896 5893 5889 5884 5879 5874 5870 5865 5862 5857 5853 5848 5844 5839 5834 5829 5824 5819 5813 5807 5801 5795 5789 5783 5777 5771 5765 5760 5755 5749
5955 5951 5949 5946 5943 5941 5937 5933 5929 5927 5925 5921 5916 5916 5912 5910 5906 5901 5898 5894 5891 5886 5881 5877 5872 5868 5863 5859 5855 5851 5846 5841 5836 5831 5826 5821 5816 5810 5804 5797 5791 5785 5779 5772 5766 5761 5755 5750 5744
5946 5947 5946 5944 5943 5941 5936 5935 5928 5928 5926 5922 5919 5915 5912 5909 5906 5902 5899 5895 5890 5886 5880 5874 5870 5866 5862 5857 5853 5848 5843 5838 5833 5829 5824 5818 5812 5807 5801 5795 5789 5781 5775 5768 5762 5756 5751 5745 5740
5951 5950 5946 5947 5942 5939 5939 5933 5930 5928 5925 5921 5918 5916 5912 5908 5905 5902 5899 5894 5890 5886 5880 5875 5869 5864 5860 5855 5850 5845 5841 5838 5833 5827 5821 5815 5809 5804 5799 5793 5786 5779 5772 5765 5759 5752 5746 5741 5736
5950 5948 5948 5947 5941 5930 5934 5936 5930 5928 5926 5921 5917 5914 5910 5907 5903 5900 5896 5892 5888 5884 5879 5874 5869 5865 5859 5854 5849 5843 5838 5833 5829 5824 5818 5812 5806 5801 5796 5790 5783 5777 5769 5762 5755 5749 5742 5737 5731
5953 5947 5944 5942 5941 5936 5932 5934 5929 5924 5921 5920 5918 5914 5911 5906 5903 5899 5894 5891 5888 5883 5878 5873 5867 5862 5857 5852 5847 5841 5837 5832 5826 5821 5816 5810 5805 5798 5793 5788 5781 5774 5767 5760 5752 5746 5739 5733 5728
5950 5946 5943 5937 5936 5925 5929 5932 5927 5923 5924 5921 5915 5913 5909 5905 5901 5895 5892 5888 5885 5879 5876 5871 5866 5861 5855 5850 5845 5839 5834 5829 5824 5818 5813 5807 5802 5797 5790 5784 5778 5772 5764 5758 5750 5743 5737 5731 5725
5947 5946 5944 5937 5936 5933 5930 5935 5928 5928 5925 5921 5916 5911 5909 5904 5898 5896 5891 5886 5883 5877 5872 5869 5864 5859 5853 5849 5843 5837 5832 5826 5821 5816 5811 5805 5799 5793 5788 5782 5775 5769 5762 5755 5748 5741 5734 5728 5722
5948 5947 5940 5939 5940 5939 5934 5930 5929 5925 5923 5920 5918 5912 5904 5902 5895 5892 5890 5887 5882 5875 5870 5865 5861 5855 5850 5846 5840 5834 5828 5823 5818 5813 5808 5802 5796 5791 5785 5779 5773 5767 5760 5754 5746 5738 5732 5726 5720
5948 5947 5944 5940 5939 5938 5934 5920 5924 5922 5916 5915 5911 5910 5905 5898 5894 5887 5886 5881 5875 5872 5867 5862 5856 5852 5847 5842 5837 5831 5825 5819 5814 5808 5803 5799 5793 5788 5783 5776 5770 5764 5758 5751 5744 5737 5730 5724 5718
5947 5943 5941 5938 5935 5933 5933 5930 5926 5920 5914 5910 5906 5906 5903 5898 5893 5888 5882 5878 5872 5869 5864 5858 5853 5849 5844 5839 5834 5828 5823 5816 5811 5806 5801 5795 5790 5785 5780 5774 5767 5761 5755 5748 5742 5734 5728 5722 5717
5934 5933 5933 5934 5934 5931 5931 5929 5920 5917 5906 5911 5903 5902 5899 5895 5888 5881 5878 5877 5870 5866 5861 5855 5849 5844 5840 5835 5829 5823 5817 5811 5806 5801 5797 5792 5787 5781 5776 5770 5764 5758 5752 5745 5740 5733 5726 5720 5714
5934 5936 5934 5927 5932 5926 5929 5926 5919 5912 5908 5907 5896 5899 5896 5891 5884 5878 5872 5874 5867 5862 5854 5850 5843 5838 5833 5829 5825 5819 5813 5808 5802 5797 5792 5788 5784 5779 5773 5768 5761 5756 5749 5743 5737 5731 5725 5719 5713